Weather History for KBDN - September, 2013

Change the Weather History Date:

Thursday, September 5, 2013

  Actual Average (KRDM) Record (KRDM)
Temperature  
Mean Temperature 60 °F 60 °F  
Max Temperature 71 °F 80 °F 99 °F (1998)
Min Temperature 48 °F 41 °F 29 °F (2010)
Degree Days  
Heating Degree Days 6 6  
Month to date heating degree days 26  
Since 1 July heating degree days 175  
Cooling Degree Days 0 1  
Month to date cooling degree days 5  
Year to date cooling degree days 211  
Growing Degree Days 10 (Base 50)    
Moisture  
Dew Point 46 °F    
Average Humidity 66    
Maximum Humidity 93    
Minimum Humidity 35    
Precipitation  
Precipitation 0.00 in 0.02 in 0.10 in (1984)
Month to date precipitation 0.07  
Year to date precipitation 5.80  
Sea Level Pressure  
Sea Level Pressure 30.03 in    
Wind  
Wind Speed 3 mph (WNW)    
Max Wind Speed 22 mph    
Max Gust Speed 40 mph    
Visibility 10 miles    
Events Thunderstorm    
T = Trace of Precipitation, MM = Missing Value Source: NWS Daily Summary

Daily Weather History Graph

Daily Weather History Graph

Search for Another Location

Airport or City:

Trip Planner

Search our weather history database for the weather conditions in past years. The results will help you decide how hot, cold, wet, or windy it might be!

Date:

Astronomy

Sep. 05, 2013 Rise Set
Actual Time 6:32 AM PDT 7:32 PM PDT
Civil Twilight 6:03 AM PDT 8:02 PM PDT
Nautical Twilight 5:28 AM PDT 8:37 PM PDT
Astronomical Twilight 4:51 AM PDT 9:14 PM PDT
Moon 6:52 AM PDT (9/5) 7:23 PM PDT (9/5)
Length of Visible Light 13h 59m
Length of Day
13h 00m
New Moon, 0% of the Moon is Illuminated
Sep 5
New Moon
Sep 12
First Quarter
Sep 19
Full
Sep 26
Last Quarter
Oct 4
New

Hourly Weather History & Observations

Time (PDT) Temp. Dew Point Humidity Pressure Visibility Wind Dir Wind Speed Gust Speed Precip Events Conditions
12:15 AM 55.4 °F 48.2 °F 77% 30.05 in 10.0 mi Calm Calm - N/A   Clear
12:55 AM 53.6 °F 46.4 °F 77% 30.04 in 10.0 mi Calm Calm - N/A   Clear
1:15 AM 53.6 °F 48.2 °F 82% 30.04 in 10.0 mi Calm Calm - N/A   Clear
1:35 AM 51.8 °F 46.4 °F 82% 30.03 in 10.0 mi Calm Calm - N/A   Clear
1:55 AM 51.8 °F 46.4 °F 82% 30.03 in 10.0 mi Calm Calm - N/A   Clear
2:15 AM 53.6 °F 46.4 °F 77% 30.03 in 10.0 mi SW 4.6 mph - N/A   Clear
2:35 AM 53.6 °F 46.4 °F 77% 30.03 in 10.0 mi Calm Calm - N/A   Clear
2:55 AM 51.8 °F 46.4 °F 82% 30.03 in 10.0 mi Calm Calm - N/A   Clear
3:15 AM 50.0 °F 46.4 °F 87% 30.03 in 10.0 mi Calm Calm - N/A   Clear
3:35 AM 51.8 °F 46.4 °F 82% 30.03 in 10.0 mi SSW 4.6 mph - N/A   Clear
3:55 AM 51.8 °F 46.4 °F 82% 30.03 in 10.0 mi SSW 4.6 mph - N/A   Clear
4:15 AM 50.0 °F 46.4 °F 87% 30.03 in 10.0 mi Calm Calm - N/A   Clear
4:35 AM 50.0 °F 46.4 °F 87% 30.03 in 10.0 mi SW 3.5 mph - N/A   Clear
4:55 AM 48.2 °F 46.4 °F 93% 30.03 in 10.0 mi Calm Calm - N/A   Clear
5:15 AM 48.2 °F 44.6 °F 87% 30.03 in 10.0 mi Calm Calm - N/A   Clear
5:35 AM 50.0 °F 46.4 °F 87% 30.03 in 10.0 mi Calm Calm - N/A   Clear
5:55 AM 50.0 °F 46.4 °F 87% 30.03 in 10.0 mi Calm Calm - N/A   Clear
6:15 AM 50.0 °F 46.4 °F 87% 30.04 in 10.0 mi Calm Calm - N/A   Clear
6:35 AM 50.0 °F 46.4 °F 87% 30.03 in 9.0 mi WSW 4.6 mph - N/A   Clear
6:55 AM 53.6 °F 48.2 °F 82% 30.04 in 10.0 mi WSW 5.8 mph - N/A   Clear
7:15 AM 55.4 °F 48.2 °F 77% 30.04 in 10.0 mi Calm Calm - N/A   Clear
7:35 AM 55.4 °F 48.2 °F 77% 30.04 in 10.0 mi Calm Calm - N/A   Clear
7:55 AM 53.6 °F 48.2 °F 82% 30.04 in 10.0 mi Calm Calm - N/A   Clear
8:15 AM 53.6 °F 48.2 °F 82% 30.04 in 10.0 mi SW 4.6 mph - N/A   Clear
8:35 AM 57.2 °F 48.2 °F 72% 30.04 in 10.0 mi Calm Calm - N/A   Clear
8:55 AM 60.8 °F 48.2 °F 63% 30.04 in 10.0 mi Calm Calm - N/A   Clear
9:15 AM 62.6 °F 48.2 °F 59% 30.04 in 10.0 mi Calm Calm - N/A   Clear
9:35 AM 62.6 °F 48.2 °F 59% 30.03 in 7.0 mi Calm Calm - N/A   Clear
9:55 AM 64.4 °F 48.2 °F 56% 30.03 in 10.0 mi Calm Calm - N/A   Clear
10:15 AM 64.4 °F 48.2 °F 56% 30.03 in 10.0 mi NW 3.5 mph - N/A   Clear
10:35 AM 64.4 °F 48.2 °F 56% 30.02 in 10.0 mi NNE 3.5 mph - N/A   Clear
10:55 AM 66.2 °F 48.2 °F 52% 30.02 in 10.0 mi Calm Calm - N/A   Clear
11:15 AM 66.2 °F 48.2 °F 52% 30.01 in 10.0 mi NNE 6.9 mph - N/A   Clear
11:35 AM 68.0 °F 48.2 °F 49% 30.01 in 10.0 mi North 4.6 mph - N/A   Clear
11:55 AM 68.0 °F 48.2 °F 49% 30.00 in 10.0 mi NNW 6.9 mph - N/A Thunderstorm Clear
12:15 PM 68.0 °F 48.2 °F 49% 30.00 in 10.0 mi North 5.8 mph - N/A   Clear
12:35 PM 68.0 °F 48.2 °F 49% 29.99 in 10.0 mi North 5.8 mph - N/A   Clear
12:55 PM 68.0 °F 48.2 °F 49% 29.99 in 10.0 mi NNW 6.9 mph - N/A   Clear
1:15 PM 69.8 °F 46.4 °F 43% 29.98 in 10.0 mi NNE 3.5 mph - N/A   Clear
1:35 PM 69.8 °F 46.4 °F 43% 29.97 in 10.0 mi North 3.5 mph - N/A Thunderstorm Clear
1:55 PM 71.6 °F 46.4 °F 41% 29.96 in 10.0 mi North 8.1 mph - N/A Thunderstorm Clear
2:15 PM 71.6 °F 46.4 °F 41% 29.96 in 10.0 mi NW 6.9 mph - N/A Thunderstorm Clear
2:35 PM 71.6 °F 46.4 °F 41% 29.94 in 10.0 mi North 5.8 mph - N/A Thunderstorm Partly Cloudy
2:55 PM 62.6 °F 41.0 °F 45% 30.02 in 7.0 mi WSW 21.9 mph 40.3 mph N/A Thunderstorm Scattered Clouds
3:15 PM 57.2 °F 46.4 °F 67% 30.00 in 10.0 mi WSW 11.5 mph 25.3 mph N/A Thunderstorm Scattered Clouds
3:35 PM 60.8 °F 44.6 °F 55% 29.99 in 10.0 mi West 10.4 mph 24.2 mph N/A   Clear
3:55 PM 64.4 °F 42.8 °F 45% 29.97 in 10.0 mi WSW 15.0 mph 19.6 mph N/A   Clear
4:15 PM 66.2 °F 41.0 °F 40% 29.97 in 10.0 mi WSW 10.4 mph - N/A   Clear
4:35 PM 68.0 °F 39.2 °F 35% 29.96 in 10.0 mi SW 19.6 mph 27.6 mph N/A   Clear
4:55 PM 66.2 °F 41.0 °F 40% 29.97 in 10.0 mi SW 18.4 mph 23.0 mph N/A   Clear
5:15 PM 64.4 °F 42.8 °F 45% 29.97 in 10.0 mi WSW 10.4 mph 20.7 mph N/A   Clear
5:35 PM 64.4 °F 44.6 °F 49% 29.97 in 10.0 mi North 6.9 mph - N/A   Partly Cloudy
5:55 PM 62.6 °F 46.4 °F 55% 29.97 in 10.0 mi NNW 12.7 mph - N/A   Mostly Cloudy
6:15 PM 60.8 °F 44.6 °F 55% 29.99 in 10.0 mi North 6.9 mph - N/A   Partly Cloudy
6:35 PM 60.8 °F 44.6 °F 55% 30.01 in 10.0 mi Calm Calm - N/A   Clear
6:55 PM 59.0 °F 44.6 °F 59% 30.03 in 10.0 mi North 6.9 mph - N/A   Clear
7:15 PM 59.0 °F 44.6 °F 59% 30.05 in 10.0 mi North 4.6 mph - N/A   Scattered Clouds
7:35 PM 57.2 °F 44.6 °F 63% 30.07 in 10.0 mi NW 4.6 mph - N/A   Mostly Cloudy
7:55 PM 55.4 °F 44.6 °F 67% 30.07 in 10.0 mi North 4.6 mph - N/A   Scattered Clouds
8:15 PM 55.4 °F 44.6 °F 67% 30.08 in 10.0 mi NW 4.6 mph - N/A   Clear
8:35 PM 53.6 °F 44.6 °F 72% 30.09 in 10.0 mi Calm Calm - N/A   Clear
8:55 PM 53.6 °F 44.6 °F 72% 30.10 in 10.0 mi Calm Calm - N/A   Clear
9:15 PM 50.0 °F 42.8 °F 76% 30.10 in 10.0 mi Calm Calm - N/A   Clear
9:35 PM 50.0 °F 42.8 °F 76% 30.10 in 10.0 mi South 4.6 mph - N/A   Clear
9:55 PM 48.2 °F 42.8 °F 82% 30.10 in 10.0 mi Calm Calm - N/A   Clear
10:15 PM 48.2 °F 41.0 °F 76% 30.09 in 10.0 mi Calm Calm - N/A   Clear
10:35 PM 50.0 °F 42.8 °F 76% 30.09 in 10.0 mi South 4.6 mph - N/A   Clear
10:55 PM 51.8 °F 44.6 °F 76% 30.10 in 10.0 mi SSW 10.4 mph - N/A   Clear
11:15 PM 53.6 °F 44.6 °F 72% 30.10 in 10.0 mi SW 9.2 mph - N/A   Clear
11:35 PM 53.6 °F 44.6 °F 72% 30.11 in 10.0 mi WSW 9.2 mph - N/A   Clear
11:55 PM 50.0 °F 42.8 °F 76% 30.11 in 10.0 mi NW 8.1 mph - N/A   Clear